Flag for U.S.A. Weather past 2 weeks in West Palm Beach, Florida, U.S.A.

Now
88 °F

Scattered clouds.


Feels Like: 94 °F
Forecast: 77 / 86 °F
Wind: 9 mph from East

Location: Palm Beach International Airport

Current Time: May 23, 2015 at 12:27:10 PM

Latest Report: May 23, 2015 at 11:53 AM


Visibility: 10 mi

Pressure: 30.22 "Hg

Humidity: 57%

Dew point: 71 °F

Location of West Palm BeachLocation

Historic Weather in West Palm Beach — Graph

°F

West Palm Beach temperature yesterday

Maximum temperature yesterday: 88 °F (at 11:53 AM)
Minimum temperature yesterday: 75 °F (at 4:53 AM)
Average temperature yesterday: 80 °F

Past Weeks' High & Low Weather Summary

 TemperatureHumidityPressure
High89 °F (May 21, 11:53 AM)97% (May 10, 5:53 AM)30.22 "Hg (May 10, 5:53 AM)
Low71 °F (May 9, 6:53 AM)33% (May 8, 2:53 PM)29.94 "Hg (May 20, 6:53 PM)
Average81 °F71%30.10 "Hg
* Reported May 8 10:53 AM — May 23 10:53 AM, West Palm Beach, Weather by CustomWeather, © 2015

Note: Actual official high and low records may vary slightly from our data, if they occured in-between our weather recording intervals... More about our weather records

Advertising

West Palm Beach weather history for previous 24 hours

 ConditionsComfort  
Time TempWeatherWind HumidityBarometerVisibility
10:53 AM
Sat, May 23
87 °FScattered clouds.10 mph61%30.22 "Hg10 mi
9:53 AM84 °FPassing clouds.10 mph70%30.20 "Hg10 mi
8:53 AM83 °FPassing clouds.3 mph74%30.20 "Hg10 mi
7:53 AM79 °FScattered clouds.No wind84%30.18 "Hg10 mi
6:53 AM77 °FPassing clouds.No wind90%30.16 "Hg10 mi
5:53 AM75 °FPassing clouds.No wind94%30.14 "Hg10 mi
4:53 AM75 °FThunderstorms. Partly cloudy.3 mph94%30.13 "Hg10 mi
3:53 AM74 °FPassing clouds.6 mph94%30.12 "Hg10 mi
2:53 AM77 °FPartly cloudy.3 mph88%30.12 "Hg10 mi
1:53 AM76 °FPassing clouds.6 mph88%30.14 "Hg10 mi
12:53 AM77 °FPassing clouds.No wind85%30.16 "Hg10 mi
11:53 PM
Fri, May 22
77 °FPassing clouds.6 mph79%30.16 "Hg10 mi
10:53 PM78 °FPartly cloudy.5 mph76%30.14 "Hg10 mi
9:53 PM78 °FPartly cloudy.6 mph76%30.13 "Hg10 mi
8:53 PM79 °FBroken clouds.5 mph74%30.12 "Hg10 mi
7:53 PM80 °FBroken clouds.3 mph69%30.12 "Hg10 mi
6:53 PM81 °FBroken clouds.3 mph65%30.11 "Hg10 mi
5:53 PM83 °FBroken clouds.3 mph74%30.09 "Hg10 mi
4:53 PM81 °FBroken clouds.6 mph54%30.06 "Hg10 mi
3:53 PM80 °FThunderstorms. Broken clouds.6 mph56%30.09 "Hg10 mi
2:53 PM85 °FThunderstorms. Scattered clouds.7 mph70%30.09 "Hg10 mi
1:53 PM88 °FThunderstorms. Scattered clouds.10 mph57%30.08 "Hg10 mi
12:53 PM88 °FScattered clouds.9 mph59%30.09 "Hg10 mi
Weather by CustomWeather, © 2015

See weather overviewHow to use our weather pages